Location: Melara
(45.0500°N, 11.1833°E)
Time: 16:53:36
(UTC+00:00)

UKube-1 - Visible Passes

Search period start: 28 May 2024 00:00
Search period end: 07 June 2024 00:00
Orbit: 583 x 591 km, 98.3° (Epoch: 28 May)

Date Brightness Start Highest point End Pass type
(mag) Time Alt. Az. Time Alt. Az. Time Alt. Az.
28 May ? 01:27:40 10° NNW 01:31:00 24° WNW 01:32:34 19° W visible
28 May ? 23:58:55 10° NNE 00:02:48 38° E 00:03:14 37° ESE visible
29 May ? 01:34:53 10° NNW 01:37:57 21° WNW 01:39:43 16° W visible
30 May ? 00:05:51 10° NNE 00:09:51 46° E 00:10:22 43° ESE visible
30 May ? 01:42:06 10° NNW 01:44:54 18° WNW 01:46:51 13° W visible
31 May ? 00:12:47 10° NNE 00:16:52 54° E 00:17:29 49° SE visible
31 May ? 01:49:22 10° NNW 01:51:50 16° WNW 01:53:58 11° W visible
01 Jun ? 00:19:44 10° NNE 00:23:52 65° ESE 00:24:35 53° SSE visible
01 Jun ? 01:56:43 10° NNW 01:58:44 13° WNW 02:00:46 10° W visible
02 Jun ? 00:26:42 10° NNE 00:30:51 78° ESE 00:31:41 55° S visible
02 Jun ? 02:04:11 10° NW 02:05:38 12° WNW 02:07:05 10° W visible
03 Jun ? 00:33:40 10° NNE 00:37:49 89° WNW 00:38:46 53° SSW visible
03 Jun ? 23:08:34 10° E 23:08:52 10° E 23:09:11 10° E visible
04 Jun ? 00:40:38 10° N 00:44:46 76° WNW 00:45:50 48° SSW visible
04 Jun ? 23:14:15 10° ENE 23:15:55 12° E 23:16:25 12° E visible
05 Jun ? 00:47:36 10° N 00:51:43 64° WNW 00:52:54 43° SW visible
05 Jun ? 23:20:39 10° ENE 23:22:55 14° E 23:23:28 14° E visible
06 Jun ? 00:54:35 10° N 00:58:38 54° WNW 00:59:56 37° SW visible
06 Jun ? 23:27:13 10° NE 23:29:55 17° E 23:30:30 16° ESE visible
